Temperature
21 22 22 21 21 21 20 20 20 19 19 19 19 19 19 19 19 19 18 18 18 18 18 18 18 18 18 18 18 18 18 18 18 18 18 18 18 17 17 17 17 17 17
22 22 22 21 21 20 20 20 20 19 19 19 19 19 19 19 18 18 18 18 18 18 18 18 18 18 18 18 18 18 18 18 18 18 18 18 17 17 17 17 17 17 17
22 22 22 21 21 20 20 20 19 19 19 19 19 19 19 18 18 18 18 18 18 18 18 18 18 18 18 18 18 18 18 18 18 17 17 17 17 17 17 17 17 17 17
22 22 22 21 21 20 20 20 19 19 19 19 19 19 18 18 18 18 18 18 18 18 18 18 18 18 18 18 18 18 18 17 17 17 17 17 17 17 17 17 17 17 17
21 21 22 21 21 20 20 20 19 19 19 19 19 18 18 18 18 18 18 18 18 18 18 18 18 18 18 18 18 18 18 17 17 17 17 17 17 17 17 17 17 17 17
21 21 21 21 21 20 20 20 19 19 19 19 19 18 18 18 18 18 18 18 18 18 18 18 18 18 18 18 18 18 18 17 17 17 17 17 17 17 17 17 17 17 17
20 21 21 21 20 20 20 20 19 19 19 19 19 18 18 18 18 18 18 18 18 18 18 18 18 18 18 18 18 18 18 17 17 17 17 17 17 17 17 17 17 17 17
20 20 21 21 20 20 20 19 19 19 19 19 18 18 18 18 18 18 18 18 18 18 18 18 18 18 18 18 18 18 18 18 17 17 17 18 18 17 17 17 17 17 17
20 20 21 20 20 20 19 19 19 19 19 19 19 18 18 18 18 18 18 18 18 18 18 18 18 18 18 18 18 18 18 18 18 17 18 18 18 18 17 17 17 17 17
20 20 20 20 20 20 19 19 19 19 19 19 19 19 19 19 18 18 18 18 18 18 18 18 18 18 18 18 18 18 18 18 18 17 18 18 18 18 17 17 17 17 17
20 20 19 19 19 19 19 19 19 19 19 19 19 19 19 18 18 18 18 18 18 18 18 18 18 18 18 18 18 18 18 18 18 18 18 18 18 18 17 17 17 17 17
21 20 20 19 19 18 18 19 19 19 19 19 18 19 18 18 18 18 18 18 18 18 18 18 18 18 18 18 18 18 18 18 18 18 18 18 18 18 17 17 17 17 17
21 20 20 19 19 19 19 19 18 18 19 18 18 18 18 18 18 18 18 18 18 18 18 18 18 18 18 18 18 18 18 18 18 18 18 18 18 18 17 17 17 17 17
21 21 20 20 19 19 19 19 19 18 19 18 18 18 18 18 18 18 18 18 18 18 18 18 18 18 18 18 18 18 18 18 18 18 18 18 18 18 18 17 17 17 17
21 20 20 19 19 19 19 19 19 19 19 19 19 18 18 18 18 18 18 18 18 18 18 18 18 18 18 18 18 18 18 18 18 18 18 18 18 18 18 17 17 17 17
20 20 20 19 19 19 19 19 19 19 19 19 19 18 18 18 18 18 18 18 18 18 18 18 18 18 18 18 18 18 18 18 17 17 18 18 18 18 17 17 17 17 17
20 20 19 19 19 19 19 19 19 19 19 19 19 18 18 18 18 18 18 18 18 18 18 18 18 18 18 18 18 18 18 18 17 17 17 17 18 17 17 17 17 17 17
20 19 19 18 19 19 19 19 19 19 19 19 18 18 18 18 18 18 18 18 18 18 18 18 18 18 18 18 18 18 18 18 17 17 17 17 17 17 17 17 17 17 17
19 19 19 18 18 19 19 19 19 19 19 19 18 18 18 18 18 18 18 18 18 18 18 18 18 18 18 18 18 18 18 18 17 17 17 17 17 17 17 17 17 17 17
19 19 18 18 18 18 18 19 19 19 19 18 18 18 18 18 18 18 18 18 18 18 18 18 18 18 18 18 18 18 18 18 18 17 17 17 17 17 17 17 17 17 17
18 18 18 18 18 18 18 18 18 18 18 18 18 18 18 18 18 18 17 18 18 18 18 18 17 17 18 18 18 18 18 18 18 18 17 17 17 17 17 17 17 17 17
18 18 18 18 18 18 18 19 18 18 18 18 18 18 17 17 17 18 17 17 18 17 17 17 17 17 18 18 18 18 18 18 18 18 18 18 17 17 17 17 17 17 17
18 18 18 18 18 18 18 18 18 18 18 18 18 17 17 17 17 17 17 17 17 17 17 17 17 17 17 18 18 18 18 18 18 18 18 18 18 17 17 17 17 17 17
18 18 18 18 18 18 18 18 18 18 18 18 18 17 17 17 17 17 17 17 17 17 17 17 17 17 17 18 18 18 18 18 18 18 18 18 18 18 17 17 17 17 17
18 18 18 18 17 17 17 18 18 18 18 18 17 17 17 17 17 17 17 17 17 17 17 17 17 17 17 17 18 18 18 18 18 18 18 18 18 18 18 18 17 17 17
18 18 18 17 17 17 17 17 17 17 18 17 17 17 17 17 17 17 16 17 17 17 16 16 16 17 17 17 17 18 18 18 18 19 19 19 18 18 18 18 17 17 17
Wind_Speed
19 19 21 18 17 17 17 16 16 16 16 15 14 14 14 13 13 13 12 12 12 12 11 11 10 10 10 11 12 13 14 15 17 18 18 18 17 17 16 16 18 16 17
22 21 22 19 18 18 17 17 17 17 16 15 14 13 13 12 12 12 11 11 11 11 11 11 10 10 11 11 11 12 13 14 15 16 17 16 16 14 13 14 17 15 16
23 21 21 20 19 18 17 17 17 16 16 15 14 13 12 11 11 11 11 11 11 11 11 11 11 11 11 11 11 12 12 13 14 15 15 14 14 14 16 18 18 16 15
23 21 20 21 19 19 18 17 17 16 15 14 13 13 12 11 11 11 11 11 11 11 11 11 11 11 11 11 11 11 11 11 11 12 11 12 13 15 16 17 16 15 15
21 21 22 21 20 19 18 17 17 16 15 14 13 13 12 11 11 12 11 11 11 11 11 11 11 11 11 10 10 9 9 9 9 8 13 14 14 15 16 16 15 14 14
22 22 22 21 21 19 18 17 16 16 15 14 13 12 12 12 12 12 11 11 11 11 11 11 11 10 10 9 8 7 6 6 6 8 14 15 14 15 15 15 14 14 13
21 21 22 21 21 19 18 17 16 16 15 14 13 12 12 12 12 11 11 11 11 11 11 10 10 10 9 8 7 5 4 3 5 9 14 15 15 15 14 14 13 13 13
20 21 21 21 20 19 18 17 16 16 15 14 13 12 12 12 11 11 11 10 10 10 10 9 9 8 8 6 4 3 2 3 2 12 16 15 16 15 13 13 13 13 12
20 20 18 19 18 18 18 17 16 15 14 13 12 12 12 12 11 10 10 10 10 9 9 8 8 7 6 5 4 3 3 4 1 12 17 15 15 15 13 13 12 12 12
18 19 17 18 17 17 16 16 16 15 14 13 12 12 12 11 11 11 11 10 9 8 8 7 7 6 5 5 4 4 4 4 2 11 14 15 16 14 13 12 12 12 12
16 16 16 16 15 16 16 16 15 15 14 13 12 12 11 11 11 11 11 11 9 8 7 6 6 5 5 5 5 5 4 1 8 10 13 18 17 14 13 12 12 12 11
16 15 13 15 14 14 14 15 13 13 13 12 12 12 11 9 10 11 13 11 10 9 8 7 7 6 6 6 6 6 4 3 7 11 14 20 17 15 13 12 11 11 10
17 15 14 14 11 11 9 11 9 9 11 11 11 11 9 7 8 11 10 10 10 10 8 8 8 7 6 4 4 4 1 4 6 11 15 18 17 15 13 11 11 10 9
15 15 14 13 9 7 9 8 7 6 7 7 10 9 6 3 2 5 5 8 9 8 7 7 5 4 3 5 5 3 2 5 9 12 14 17 16 14 13 11 11 10 9
13 12 13 12 9 7 7 6 7 5 6 8 10 7 5 3 2 3 2 3 4 7 7 4 3 2 2 3 4 4 3 5 9 12 13 15 15 13 13 12 11 10 10
11 10 11 11 10 8 6 4 4 5 5 8 8 8 6 4 3 2 2 1 1 3 4 2 3 3 2 2 2 2 3 4 7 12 13 13 14 14 13 12 12 11 11
12 11 12 10 9 8 7 6 5 5 6 5 7 9 6 5 6 2 3 2 1 4 4 2 3 2 3 4 3 3 3 3 5 9 12 12 12 13 13 13 12 11 11
10 11 12 12 11 9 7 5 4 4 5 5 7 9 7 7 6 2 2 2 2 3 3 3 2 3 2 3 3 3 3 3 4 7 9 11 12 11 12 13 12 12 12
11 10 10 10 12 10 8 6 4 3 4 5 6 7 7 7 7 3 2 3 2 2 2 2 2 1 1 2 3 3 3 3 3 5 5 8 10 11 11 13 14 13 13
11 11 10 10 11 10 8 5 4 4 4 4 5 6 7 5 5 2 3 3 2 1 2 3 3 1 0 1 2 4 4 4 3 3 4 7 10 11 12 13 13 13 14
11 12 12 11 10 9 7 7 6 6 5 5 5 8 6 5 5 1 2 3 1 2 3 3 2 2 2 1 1 2 3 5 5 4 3 4 6 9 11 14 14 13 13
12 12 11 12 12 11 8 6 5 6 5 5 5 5 6 6 6 5 2 3 2 3 2 2 2 1 3 3 1 1 2 2 4 6 5 5 6 6 8 12 13 13 12
12 13 12 12 12 11 10 6 6 5 4 5 6 5 4 6 5 3 4 1 2 2 4 2 1 2 2 1 2 1 1 1 2 2 5 5 5 4 4 7 11 13 14
11 12 11 12 11 11 10 9 9 8 6 7 6 5 5 4 5 5 4 2 1 1 4 3 3 1 1 2 1 2 1 1 0 1 2 4 6 6 5 5 6 11 13
10 11 11 11 11 11 10 10 9 8 6 6 7 7 6 4 4 5 5 4 2 0 3 3 3 1 1 2 2 1 2 2 3 2 2 3 4 5 5 5 4 7 11
10 10 11 12 11 10 10 10 9 8 7 8 9 8 6 5 4 5 6 4 3 2 3 2 1 1 1 3 3 3 1 1 2 2 1 3 4 4 5 5 4 5 10
Wind_Direction
128 130 130 128 128 129 129 129 126 124 122 118 114 110 106 102 100 96 93 92 91 90 88 86 83 82 82 84 87 89 91 93 95 96 96 98 100 101 104 108 103 99 103
128 131 130 129 128 129 130 130 128 126 124 122 119 115 112 109 105 101 97 95 94 92 90 88 87 87 89 90 94 99 101 103 104 106 105 103 102 102 105 105 102 106 107
127 131 132 130 129 130 131 131 130 129 127 124 122 118 115 112 109 105 101 99 97 94 92 90 89 90 92 94 99 107 111 114 117 119 116 108 103 102 102 102 106 109 108
130 136 135 133 132 132 132 132 131 130 127 125 124 121 118 114 112 108 105 102 99 97 94 92 91 92 95 98 105 114 120 124 130 134 126 119 111 109 108 108 109 111 110
133 134 134 137 135 134 133 132 131 130 129 127 126 123 120 115 110 107 104 102 99 96 94 92 91 93 96 101 111 122 130 138 146 141 110 108 109 114 113 113 113 113 112
133 133 138 139 138 137 136 135 135 134 133 131 128 125 122 117 111 108 104 102 100 96 94 93 92 95 98 104 116 129 142 159 170 133 118 117 117 119 118 118 118 117 115
137 134 140 140 140 140 139 139 139 138 137 133 131 130 125 119 115 111 108 105 103 100 99 97 96 97 101 109 122 142 163 196 211 134 119 116 121 123 123 123 123 121 121
134 135 139 142 142 142 143 143 142 141 139 136 135 133 128 124 121 116 113 111 108 106 105 104 103 104 106 116 134 170 214 263 127 122 115 117 126 125 126 127 125 125 125
136 137 143 145 145 145 146 146 145 143 142 140 139 136 133 132 130 126 123 120 116 113 112 111 109 110 116 128 153 206 252 279 350 124 121 126 131 129 130 131 131 130 128
137 141 149 149 149 151 151 151 148 146 146 147 147 147 146 145 145 143 140 132 129 127 125 123 123 127 135 151 181 218 260 293 89 118 119 131 134 134 134 134 135 135 133
141 144 151 149 153 156 156 154 153 153 155 156 158 163 166 170 163 164 147 145 146 146 146 148 152 159 165 182 203 222 247 199 109 112 121 135 138 138 138 137 137 137 136
151 152 149 150 160 163 158 153 161 164 164 177 170 175 192 188 168 151 149 157 161 165 168 178 186 196 203 191 199 219 234 146 130 124 134 141 142 143 143 142 141 141 141
158 152 152 152 165 162 147 158 166 168 167 187 173 180 189 175 157 145 160 164 177 181 189 183 202 214 200 171 176 210 208 101 109 118 139 143 144 147 148 148 149 150 150
158 153 153 149 160 156 150 158 161 166 170 173 162 185 171 165 152 140 156 172 184 184 181 185 214 199 154 162 173 180 144 113 119 123 146 146 146 150 154 158 159 160 160
154 154 150 147 148 140 139 159 165 162 170 157 158 177 161 166 141 131 133 154 194 167 167 181 190 143 147 198 195 168 120 101 125 134 146 153 152 156 160 164 168 170 171
149 148 140 143 143 139 144 163 157 167 162 152 155 154 175 151 120 128 134 109 171 133 125 160 152 158 190 197 206 137 133 132 128 135 147 158 161 164 168 173 177 179 181
146 141 136 147 147 148 162 181 174 172 157 141 139 151 166 135 126 136 142 177 164 133 139 169 154 179 195 184 177 146 140 128 133 144 153 163 167 171 176 181 184 188 190
142 147 152 163 156 159 173 197 178 165 142 137 144 146 147 130 142 167 170 151 143 160 165 170 189 194 192 158 173 172 141 140 148 159 163 166 165 172 182 188 190 194 198
152 155 162 158 158 167 177 188 170 134 129 136 141 139 143 148 154 184 123 114 191 198 179 177 131 94 152 170 169 149 147 158 156 182 172 165 167 172 179 191 197 200 203
161 163 169 163 163 168 175 173 154 143 147 139 124 125 142 153 156 163 142 138 230 169 113 81 96 99 322 214 195 157 167 166 174 180 176 169 175 181 183 184 193 206 211
171 168 171 171 172 171 176 170 165 164 162 147 136 135 149 151 140 168 121 139 238 94 101 120 116 172 224 209 142 156 178 180 177 179 185 169 181 186 176 177 188 198 205
176 172 171 169 172 179 180 170 167 159 164 145 123 136 152 149 157 175 125 165 135 107 106 103 106 339 230 173 163 168 176 188 194 194 178 186 184 181 183 188 192 191 197
178 176 176 172 174 178 172 164 158 150 152 138 135 151 154 154 155 109 127 119 128 168 142 174 155 211 308 190 182 170 146 183 193 188 195 180 165 177 194 191 192 189 197
177 174 170 171 175 175 175 172 167 169 171 158 152 147 152 164 159 144 137 115 96 69 129 194 168 227 273 291 200 166 159 128 128 168 218 182 176 185 198 198 196 185 195
175 173 169 170 175 177 177 174 179 171 166 155 143 144 159 169 170 152 142 138 143 131 115 79 87 14 330 311 314 211 191 190 231 197 199 187 193 189 191 195 190 190 193
172 172 170 170 173 174 177 177 184 172 169 153 150 154 170 164 176 161 149 151 172 170 122 119 105 205 345 351 339 334 324 234 249 241 208 199 203 196 183 185 185 188 193
Height
1500 1503 1507 1510 1512 1515 1517 1519 1521 1523 1525 1527 1529 1530 1532 1533 1535 1536 1537 1538 1539 1540 1541 1542 1543 1544 1545 1545 1546 1547 1548 1549 1550 1552 1553 1554 1556 1557 1558 1559 1561 1562 1563
1499 1503 1507 1510 1513 1516 1518 1521 1523 1525 1527 1529 1530 1532 1533 1535 1536 1538 1539 1540 1541 1542 1543 1544 1544 1545 1546 1546 1547 1549 1550 1551 1552 1554 1555 1556 1558 1559 1560 1562 1563 1564 1566
1499 1503 1507 1510 1514 1516 1519 1522 1524 1526 1528 1530 1532 1533 1535 1536 1538 1539 1540 1542 1543 1543 1544 1545 1546 1546 1547 1548 1549 1550 1552 1553 1554 1555 1557 1558 1560 1561 1563 1564 1566 1567 1568
1499 1504 1507 1511 1514 1517 1520 1523 1525 1527 1529 1531 1533 1535 1537 1538 1540 1541 1542 1543 1544 1545 1546 1546 1547 1548 1548 1549 1550 1552 1553 1555 1556 1557 1559 1560 1562 1563 1565 1566 1568 1569 1570
1500 1504 1508 1511 1515 1518 1521 1523 1526 1528 1531 1533 1535 1536 1538 1540 1541 1542 1544 1545 1546 1546 1547 1548 1548 1549 1550 1551 1552 1554 1555 1557 1558 1559 1561 1562 1563 1565 1567 1568 1570 1571 1573
1501 1505 1508 1512 1515 1518 1521 1524 1527 1529 1532 1534 1536 1538 1539 1541 1542 1544 1545 1546 1547 1548 1549 1549 1550 1551 1552 1553 1554 1556 1557 1559 1560 1562 1563 1564 1565 1567 1568 1570 1571 1573 1574
1502 1505 1509 1513 1516 1519 1522 1525 1528 1530 1533 1535 1537 1539 1541 1542 1544 1545 1546 1547 1548 1549 1550 1551 1552 1553 1554 1555 1556 1558 1559 1560 1562 1564 1564 1566 1567 1568 1570 1571 1573 1574 1576
1503 1505 1510 1514 1517 1520 1523 1526 1529 1531 1534 1536 1538 1540 1542 1543 1545 1546 1547 1549 1550 1551 1552 1553 1553 1554 1556 1557 1558 1559 1560 1561 1564 1565 1566 1567 1568 1570 1571 1573 1574 1576 1577
1503 1505 1509 1513 1518 1521 1524 1527 1529 1532 1535 1537 1539 1541 1543 1544 1546 1547 1549 1550 1551 1552 1553 1554 1555 1556 1557 1558 1559 1561 1562 1563 1564 1566 1566 1568 1570 1571 1572 1574 1575 1577 1579
1503 1505 1509 1513 1517 1521 1525 1528 1530 1533 1535 1538 1540 1542 1544 1545 1547 1548 1549 1551 1552 1553 1554 1555 1556 1558 1559 1560 1561 1562 1563 1564 1566 1566 1567 1569 1571 1572 1573 1575 1576 1578 1580
1503 1506 1510 1515 1518 1522 1525 1528 1531 1533 1536 1538 1541 1543 1544 1546 1548 1549 1550 1552 1553 1554 1555 1556 1557 1559 1560 1561 1562 1563 1564 1565 1566 1567 1568 1570 1571 1572 1574 1575 1577 1579 1580
1503 1507 1511 1515 1519 1523 1526 1528 1531 1534 1536 1539 1541 1543 1545 1547 1549 1550 1551 1552 1553 1554 1556 1557 1558 1559 1561 1562 1563 1564 1565 1566 1566 1566 1568 1570 1571 1573 1574 1576 1578 1579 1581
1503 1507 1512 1515 1520 1523 1526 1528 1531 1534 1536 1539 1542 1544 1546 1548 1550 1551 1552 1552 1554 1555 1556 1557 1559 1560 1561 1562 1563 1565 1565 1565 1566 1567 1568 1570 1571 1573 1575 1576 1578 1580 1581
1501 1505 1510 1514 1519 1522 1525 1528 1531 1535 1537 1539 1542 1544 1547 1549 1550 1551 1552 1553 1554 1555 1556 1558 1559 1560 1561 1562 1563 1565 1566 1567 1566 1567 1569 1570 1571 1573 1575 1576 1578 1580 1581
1500 1503 1507 1511 1516 1520 1524 1528 1532 1535 1537 1540 1542 1544 1546 1548 1550 1551 1552 1553 1554 1555 1556 1557 1559 1560 1561 1562 1564 1565 1566 1567 1568 1568 1569 1570 1572 1573 1575 1576 1578 1580 1581
1497 1501 1506 1509 1514 1520 1523 1528 1531 1534 1537 1539 1541 1543 1545 1547 1549 1550 1551 1553 1554 1555 1556 1557 1558 1560 1561 1562 1563 1564 1565 1567 1568 1568 1569 1570 1572 1573 1574 1576 1578 1579 1581
1496 1499 1504 1509 1514 1519 1523 1527 1531 1534 1537 1539 1540 1542 1545 1546 1547 1549 1551 1552 1553 1554 1555 1556 1558 1559 1560 1562 1563 1564 1565 1566 1567 1568 1568 1570 1571 1572 1574 1576 1577 1579 1580
1496 1499 1502 1508 1513 1518 1522 1526 1530 1534 1536 1538 1539 1541 1543 1545 1546 1548 1550 1552 1553 1554 1555 1556 1557 1558 1560 1561 1562 1563 1564 1565 1566 1567 1568 1569 1571 1572 1573 1575 1576 1578 1579
1495 1498 1503 1508 1511 1515 1520 1525 1529 1532 1534 1537 1539 1540 1542 1544 1546 1548 1550 1550 1552 1554 1555 1556 1556 1558 1559 1560 1561 1562 1563 1564 1565 1566 1567 1569 1570 1571 1572 1574 1575 1577 1578
1494 1497 1502 1506 1510 1514 1519 1523 1527 1530 1533 1536 1538 1539 1541 1543 1545 1547 1549 1550 1552 1553 1554 1555 1555 1557 1558 1559 1561 1562 1562 1563 1564 1566 1567 1568 1569 1570 1571 1572 1574 1575 1577
1492 1495 1499 1503 1508 1512 1516 1520 1524 1528 1532 1535 1536 1538 1541 1543 1544 1546 1548 1549 1551 1552 1553 1554 1555 1556 1558 1559 1560 1562 1563 1563 1564 1565 1566 1567 1568 1569 1570 1571 1572 1574 1575
1491 1494 1497 1500 1505 1509 1514 1519 1523 1527 1531 1533 1535 1537 1540 1542 1544 1546 1547 1548 1550 1551 1552 1553 1554 1556 1558 1559 1560 1561 1562 1564 1563 1564 1565 1566 1567 1568 1569 1570 1571 1572 1573
1489 1491 1494 1498 1503 1508 1512 1517 1521 1525 1529 1531 1534 1536 1539 1541 1543 1545 1546 1548 1549 1550 1551 1553 1554 1555 1557 1559 1560 1561 1561 1561 1562 1564 1564 1565 1566 1567 1569 1570 1570 1571 1572
1487 1490 1493 1496 1501 1505 1510 1514 1518 1522 1526 1529 1532 1534 1537 1539 1542 1543 1545 1546 1548 1550 1551 1552 1553 1555 1556 1558 1559 1560 1561 1561 1562 1563 1564 1565 1565 1566 1567 1568 1569 1569 1570
1486 1488 1491 1495 1499 1504 1508 1512 1517 1521 1525 1528 1531 1533 1536 1538 1540 1542 1544 1545 1547 1549 1550 1551 1552 1554 1556 1557 1558 1559 1560 1560 1561 1562 1563 1564 1564 1565 1566 1567 1568 1568 1568
1484 1486 1489 1493 1497 1502 1506 1510 1515 1519 1523 1526 1529 1531 1534 1536 1539 1541 1543 1544 1546 1548 1549 1550 1551 1553 1554 1555 1556 1558 1559 1560 1560 1561 1561 1562 1562 1563 1564 1565 1566 1566 1567